EHI
0 0 0 0 0 0 0 0 0 0 0 0 0 0 5 14 19 22 25 25 24 22 20 20 21 21 20 18 14 9 7 9 11 12 9 3 0 0 0 0 0 0 0 0
0 0 0 0 0 0 0 0 0 0 0 0 0 0 3 10 14 17 19 19 18 16 16 18 19 19 19 17 13 8 5 6 8 8 5 2 0 0 0 0 0 0 0 0
0 0 0 0 0 0 0 0 0 0 0 0 0 0 1 4 6 8 11 12 12 11 11 14 18 19 18 15 11 8 5 4 5 4 2 0 0 0 0 0 0 0 0 0
0 0 0 0 0 0 0 0 0 0 0 0 0 0 0 1 2 4 6 9 11 11 10 13 17 18 15 12 9 7 4 3 3 3 2 0 0 0 1 0 0 0 0 0
0 0 0 0 0 0 0 0 0 0 0 0 0 0 0 0 1 2 4 7 9 12 12 14 16 16 13 9 7 5 4 3 3 3 1 0 0 0 1 0 0 1 1 0
0 0 0 0 0 0 0 0 0 0 0 0 0 0 0 0 0 1 2 4 7 11 14 14 15 15 11 8 6 4 3 3 3 2 1 0 0 0 1 1 1 2 2 1
0 0 0 0 0 0 0 0 0 0 0 0 0 0 0 0 0 0 1 3 6 10 12 14 15 14 11 8 5 4 3 3 3 2 1 0 0 0 0 1 1 2 2 1
0 0 0 0 0 0 0 0 0 0 0 0 0 0 0 0 0 0 1 3 7 10 12 13 15 14 11 8 5 3 3 3 3 2 1 0 0 0 0 0 1 1 1 0
0 0 0 0 0 0 0 0 0 0 0 0 0 0 0 0 0 0 1 3 7 9 10 13 15 15 12 8 4 3 3 3 3 2 1 0 0 0 0 0 0 0 0 0
0 0 0 0 0 0 0 0 0 0 0 0 0 0 0 0 0 0 1 3 5 6 7 10 13 13 11 7 4 3 3 3 3 2 1 0 0 0 0 0 0 0 0 0
0 0 0 0 0 0 0 0 0 0 0 0 0 0 0 0 0 0 1 2 3 3 4 6 9 10 9 7 5 4 3 3 3 1 0 0 0 0 0 0 0 0 0 0
0 0 0 0 0 0 0 0 0 0 0 0 0 0 0 0 0 0 0 1 2 3 3 3 5 7 7 7 6 5 4 3 3 1 0 0 0 0 0 0 0 0 0 0
0 0 0 0 0 0 0 0 0 0 0 0 0 0 0 0 0 0 0 0 1 2 2 2 3 5 6 5 6 5 4 3 3 2 1 0 0 0 0 0 0 0 0 0
0 0 0 0 0 0 0 0 0 0 0 0 0 0 0 0 0 0 0 0 0 1 1 0 1 2 2 2 3 4 4 3 3 2 1 0 0 0 0 0 0 0 0 0
0 0 0 0 0 0 0 0 0 0 0 0 0 0 0 0 0 0 0 0 0 0 0 0 0 0 0 1 2 3 3 3 3 2 1 0 0 0 0 0 0 0 0 0
0 0 0 0 0 0 0 0 0 0 0 0 0 0 0 0 0 0 0 0 0 0 0 0 0 0 0 1 2 1 2 3 3 2 1 0 0 0 0 0 0 0 0 0
0 0 0 0 0 0 0 0 0 0 0 0 0 0 0 0 0 0 0 0 0 0 0 0 0 0 0 1 2 2 2 2 2 1 1 0 0 0 0 0 0 0 0 0
0 0 0 0 0 0 0 0 0 0 0 0 0 0 0 0 0 0 0 0 0 0 0 0 0 0 0 0 1 2 3 2 1 1 0 0 1 1 0 0 0 0 0 1
0 0 0 0 0 0 0 0 0 0 0 0 0 0 0 0 0 1 0 0 0 0 0 0 0 0 0 0 1 2 3 2 2 1 1 1 1 0 0 0 0 0 1 2
0 0 0 0 0 0 0 0 0 0 0 0 0 0 0 0 0 0 0 0 0 0 0 0 0 0 0 0 1 1 2 3 3 3 2 1 0 0 0 0 0 0 1 2
0 0 0 0 0 0 0 0 0 0 0 0 0 0 0 0 0 0 0 0 0 0 0 0 0 0 0 0 0 1 3 3 3 3 3 1 1 0 0 0 0 0 0 1
0 0 0 0 0 0 0 0 0 0 0 0 0 0 0 0 0 0 0 0 0 0 0 0 0 0 0 0 0 2 3 3 3 3 3 3 2 1 0 0 0 0 0 1
0 0 0 0 0 0 0 0 0 0 0 0 0 0 0 0 0 0 0 0 0 0 0 0 0 0 0 0 1 1 3 4 3 3 3 3 3 2 1 0 0 0 0 1
0 0 0 0 0 0 0 0 0 0 0 0 0 0 0 0 0 0 0 0 0 0 0 0 0 0 0 0 1 2 3 4 4 3 2 2 3 2 1 0 0 0 0 0
0 0 0 0 0 0 0 0 0 0 0 0 0 0 0 0 0 0 0 0 0 0 0 0 0 0 0 0 1 2 3 4 3 2 1 1 2 2 1 0 0 0 0 0
0 0 0 0 0 0 0 0 0 0 0 0 0 0 0 0 0 0 0 0 0 0 0 0 0 0 0 0 0 1 2 2 1 1 0 0 1 2 2 1 0 0 0 0
Wind_Speed
3 4 4 6 7 5 2 3 8 8 4 2 4 4 4 4 5 5 5 6 6 6 5 5 7 8 8 9 10 10 10 10 9 6 6 5 5 4 3 3 5 6 6 6
3 4 8 5 4 4 4 5 7 7 2 1 2 3 2 4 5 6 7 6 6 5 4 6 7 8 9 10 11 11 10 10 9 7 5 4 4 3 3 3 4 5 6 6
7 6 3 4 3 3 5 5 6 5 3 3 2 4 2 2 1 3 4 4 5 7 7 7 8 9 10 12 13 12 11 10 9 8 5 5 4 3 2 3 3 4 5 6
5 6 4 4 5 5 6 6 7 4 1 3 2 4 6 2 2 4 5 4 6 6 6 6 7 8 9 11 11 11 10 10 9 9 9 10 7 5 4 4 3 3 4 5
7 4 5 6 7 6 6 1 1 2 3 1 2 1 8 2 4 6 6 6 6 6 7 7 7 8 8 8 9 10 10 9 9 9 10 9 6 4 4 4 5 4 3 4
6 3 4 6 4 4 3 5 6 5 5 1 2 1 7 4 7 5 5 6 6 6 6 6 5 6 7 8 8 9 9 8 9 9 9 9 9 8 8 6 6 4 3 3
4 4 4 3 1 1 4 5 4 5 4 5 2 2 10 7 6 6 7 7 6 6 7 7 7 7 8 9 10 9 10 9 9 9 9 9 9 9 9 8 7 6 4 3
3 6 4 4 6 6 4 8 7 5 5 5 2 5 9 5 3 3 4 5 5 6 7 8 8 8 8 9 9 10 10 9 9 9 8 7 8 6 5 6 6 6 5 4
6 6 4 2 2 7 5 3 5 7 2 1 5 7 9 2 1 1 3 4 6 7 7 7 7 8 8 8 9 10 10 8 8 8 8 7 7 6 6 6 5 5 4 5
8 3 4 2 3 3 4 7 5 6 5 3 4 4 5 6 4 2 4 6 6 6 6 7 7 8 8 7 7 7 8 8 8 8 8 7 7 7 6 6 7 6 6 5
5 4 3 2 2 3 3 4 5 4 5 6 3 8 7 7 5 5 5 5 7 8 8 8 8 8 7 7 7 7 8 7 7 8 7 7 7 7 7 7 7 7 6 7
4 5 2 4 3 1 3 5 7 5 4 4 4 9 4 4 4 4 3 4 6 7 7 7 8 8 8 8 8 8 9 9 8 8 7 7 7 7 8 8 7 7 7 7
5 6 2 5 4 3 2 2 3 5 5 5 4 9 3 2 1 2 2 3 4 6 7 6 7 8 9 10 9 9 10 10 9 8 8 8 8 8 8 8 7 7 7 7
6 4 6 7 6 3 1 2 4 5 4 4 7 7 6 4 3 2 2 3 4 5 6 7 7 7 8 9 10 10 10 10 9 9 9 9 9 9 9 8 8 8 8 8
5 3 2 2 2 2 3 4 4 5 7 7 7 7 7 5 4 2 2 3 3 4 5 7 8 7 7 8 9 10 10 10 10 10 10 10 8 8 8 8 8 8 8 8
4 4 2 1 2 2 3 4 4 5 4 5 4 6 4 3 0 0 1 3 4 5 5 6 7 8 8 9 9 10 10 10 10 10 10 9 8 8 8 8 8 8 8 7
3 5 3 2 2 1 4 5 5 4 3 5 6 6 1 2 1 1 0 1 3 4 4 5 6 7 8 9 9 10 10 9 10 10 9 9 9 9 9 9 8 9 9 8
6 5 3 2 1 5 6 2 1 3 3 3 3 3 2 2 1 2 2 0 1 1 2 3 4 5 6 6 7 7 8 9 10 10 9 9 10 10 8 8 9 9 7 7
3 6 4 3 3 4 3 1 0 2 3 2 2 1 1 0 2 4 5 3 2 1 1 1 3 4 4 5 6 7 7 8 8 9 9 9 10 9 8 9 9 8 7 7
5 4 4 3 3 5 4 2 2 1 3 1 1 1 0 2 1 1 4 4 4 5 4 3 2 3 4 4 7 8 7 7 7 7 7 7 8 8 9 9 7 6 6 7
3 3 2 3 3 5 2 4 1 3 4 2 0 1 1 1 1 1 3 5 5 6 6 5 6 5 2 3 7 8 6 6 5 5 4 4 5 6 6 6 5 5 5 5
2 2 2 2 3 5 3 3 1 3 3 2 1 0 2 3 3 4 4 5 6 7 7 7 7 7 5 5 7 8 5 3 4 5 4 3 3 4 4 4 4 4 5 5
3 4 3 4 4 3 2 2 3 3 3 2 0 1 3 4 4 5 6 6 7 7 7 7 8 8 8 8 7 6 3 4 5 6 4 3 3 2 2 4 4 3 3 3
1 1 1 1 3 3 3 2 2 1 1 1 2 3 4 5 5 6 6 6 7 7 7 7 9 10 8 8 8 6 4 5 6 6 4 4 3 3 3 2 2 2 2 3
2 1 1 2 2 3 3 3 3 3 4 5 7 7 7 7 7 7 7 7 7 7 6 7 7 8 8 8 8 6 5 6 7 6 5 4 3 3 3 3 2 2 1 2
1 2 2 3 3 2 1 3 4 5 7 8 10 10 10 10 10 9 8 7 8 8 8 9 8 8 8 8 8 7 6 6 7 6 5 4 3 3 3 3 3 5 4 4
Wind_Direction
131 105 201 212 196 199 212 258 277 275 274 261 256 257 237 203 190 194 195 190 195 201 182 175 178 174 170 170 170 177 174 167 160 160 163 163 169 163 158 163 160 160 158 157
67 247 230 205 199 205 228 267 278 293 338 141 274 281 242 205 206 204 200 198 199 192 180 182 183 182 178 178 176 178 179 169 170 170 164 157 146 143 146 147 147 158 158 158
190 230 199 188 221 235 250 226 244 254 331 24 3 322 279 243 211 200 197 193 193 194 192 190 186 184 181 181 181 180 177 174 174 162 141 129 109 102 117 139 151 160 161 161
226 243 219 231 241 206 262 237 219 224 153 306 30 293 288 260 256 220 207 199 201 199 193 191 184 181 183 180 177 173 171 174 173 163 163 161 160 161 170 163 154 150 155 157
230 214 190 220 231 190 225 306 114 119 130 23 1 223 286 313 265 246 219 209 205 199 191 190 188 179 171 167 168 168 168 171 170 168 168 166 160 151 135 131 136 137 137 147
239 234 206 214 224 181 167 69 55 51 70 342 265 193 279 247 233 239 213 211 205 191 183 185 174 155 155 155 155 159 163 166 166 167 166 164 157 148 144 147 152 147 137 138
290 276 243 194 152 49 113 94 34 0 9 259 259 225 253 255 239 220 207 208 195 178 174 176 165 158 160 160 158 159 164 165 165 167 166 165 161 158 162 162 162 156 155 159
211 282 256 192 182 183 173 145 158 192 223 272 299 244 256 268 267 221 191 184 173 172 176 180 175 170 167 162 161 160 166 163 164 167 166 163 161 159 164 165 163 169 171 168
185 249 290 259 191 145 140 162 160 133 150 268 281 285 300 291 324 190 175 170 183 179 175 180 177 171 169 167 170 168 166 160 161 162 157 158 162 164 167 165 162 164 163 163
162 227 295 310 72 44 127 141 106 119 145 243 286 277 265 278 270 241 199 194 192 179 173 177 179 175 173 172 168 163 163 165 163 162 165 168 168 172 167 162 171 173 171 165
147 170 299 10 157 183 106 100 106 114 149 161 241 269 230 235 234 224 218 204 191 185 182 181 181 176 170 165 166 167 166 163 164 167 167 164 169 170 169 176 184 180 174 173
144 131 222 264 270 240 160 162 147 151 205 177 184 263 268 242 232 206 203 193 187 183 181 179 175 169 172 174 175 176 175 174 175 171 167 167 167 168 175 184 187 181 180 181
132 116 81 347 342 3 73 133 144 127 122 156 178 262 293 328 306 188 182 180 176 172 171 172 173 176 182 184 183 183 183 182 175 170 171 172 174 178 185 189 186 182 182 182
111 113 160 193 216 205 241 204 158 133 150 194 219 251 293 308 298 269 207 189 176 176 177 177 184 187 189 188 187 187 187 182 175 174 177 184 189 190 191 188 185 185 184 185
100 128 182 219 235 192 229 238 196 185 188 192 226 233 260 272 269 257 207 178 165 178 187 190 191 190 189 189 190 189 187 183 178 178 185 193 191 188 187 187 188 188 189 194
84 133 130 299 260 218 246 254 223 215 204 219 244 260 263 285 294 46 147 166 182 195 197 196 193 190 192 194 194 191 188 183 177 183 192 189 184 186 190 193 190 188 193 192
119 134 136 234 276 341 262 241 210 201 203 194 219 246 303 315 323 339 80 161 208 212 198 194 197 196 195 197 193 191 187 176 178 187 189 186 185 191 194 193 189 194 195 191
136 127 137 165 109 223 242 283 200 187 225 216 233 266 252 248 312 27 19 28 260 252 218 205 201 201 198 189 184 179 170 172 181 188 191 188 189 195 191 188 193 196 190 191
124 132 128 141 189 261 285 284 209 193 259 231 225 287 352 43 76 32 18 23 22 4 303 229 203 184 169 172 167 154 160 167 177 190 195 192 190 193 190 195 199 194 187 193
60 90 118 148 178 225 248 306 307 142 276 276 202 230 334 62 87 336 6 18 36 38 36 37 63 113 139 161 148 144 153 158 176 190 193 186 183 186 192 197 197 188 187 197
38 51 130 177 212 255 291 309 344 176 252 330 324 204 149 110 154 116 20 26 40 48 48 54 62 70 90 136 134 135 139 163 179 169 160 162 174 185 190 186 181 175 184 190
168 161 187 162 200 251 333 5 97 252 301 326 335 179 113 114 103 82 58 45 44 48 47 56 66 58 50 83 111 116 129 152 129 116 122 142 157 175 179 165 166 167 176 190
188 194 189 189 215 261 310 280 282 259 270 289 137 120 129 114 104 87 71 60 54 52 50 52 63 60 49 51 77 94 96 100 103 105 110 114 118 129 141 156 161 153 163 183
248 157 147 265 280 298 314 312 326 310 206 132 122 120 121 113 103 91 79 69 63 58 56 56 61 62 52 48 56 64 69 92 99 99 98 97 103 100 94 105 124 137 160 180
237 183 170 244 278 336 350 4 14 45 71 86 87 87 95 103 96 89 79 69 67 64 61 62 64 66 57 52 51 46 51 77 85 82 81 79 83 97 99 94 89 113 133 173
223 192 187 226 233 196 299 11 50 74 80 92 92 82 77 87 91 88 80 69 66 62 58 61 55 57 55 55 51 41 44 67 79 73 65 67 70 75 84 87 73 60 73 68